Stations météo

réclame
Mon MeteoGroup
Mühldorf, Allemagne (10875): Température de l'air & dewpoint: 18.05.2019 03:00:00 - 24.05.2019 03:00:00 (CEST)Mühldorf, Allemagne (10875): Température de l'air 5cm & Température de l'air -5cm: 18.05.2019 03:00:00 - 24.05.2019 03:00:00 (CEST)Mühldorf, Allemagne (10875): Température de l'air -20cm & Température de l'air -100cm: 18.05.2019 03:00:00 - 24.05.2019 03:00:00 (CEST)Mühldorf, Allemagne (10875): Vitesse du vent & gusts: 18.05.2019 03:00:00 - 24.05.2019 03:00:00 (CEST)Mühldorf, Allemagne (10875): Direction du vent: 18.05.2019 03:00:00 - 24.05.2019 03:00:00 (CEST)Mühldorf, Allemagne (10875): reduced air pressure: 18.05.2019 03:00:00 - 24.05.2019 03:00:00 (CEST)Mühldorf, Allemagne (10875): visibility: 18.05.2019 03:00:00 - 24.05.2019 03:00:00 (CEST)Mühldorf, Allemagne (10875): Ensoleillement: 18.05.2019 03:00:00 - 24.05.2019 03:00:00 (CEST)Mühldorf, Allemagne (10875): Quantités de précipitations: 18.05.2019 03:00:00 - 24.05.2019 03:00:00 (CEST)
Date & Time tt [°C] td [°C] tt 5cm [°C] tt -5cm [°C] tt -20cm [°C] tt -100cm [°C] ff [km/h] ff [knt] fx [km/h] fx [knt] dd ppp [hPa] vv [km] sd [min] rr [mm]
24.05.2019 03:00:00 5,4 5,2 2,0 8,7 14,3 11,2 1 0 3 2 WSW 1018,4 8 0 0,0
24.05.2019 02:00:00 5,9 5,5 2,7 9,5 14,5 11,2 0 0 4 2 ENE 1018,5 4,8 0 0,0
24.05.2019 01:00:00 6,7 6,4 3,5 10,4 14,7 11,2 0 0 5 3 N 1018,5 12 0 0,0
24.05.2019 00:00:00 7,8 7,3 3,7 11,6 14,8 11,2 0 0 3 1 N 1018,5 18 0 0,0
23.05.2019 23:00:00 8,5 7,7 5,3 12,9 14,9 11,2 0 0 4 2 N 1018,5 24 0 0,0
23.05.2019 22:00:00 10,2 8,7 6,2 14,7 14,9 11,2 0 0 4 2 N 1018,3 29 0 0,0
23.05.2019 21:00:00 13,0 7,4 9,1 17,1 14,7 11,2 0 0 6 3 N 1017,5 52 18 0,0
23.05.2019 20:00:00 16,3 7,0 15,1 19,4 14,5 11,2 3 2 10 5 NNE 1016,9 53 58 0,0
23.05.2019 19:00:00 17,6 4,8 19,2 21,2 14,2 11,2 7 4 15 8 ENE 1016,7 43 60 0,0
23.05.2019 18:00:00 18,8 4,8 20,3 23,0 13,8 11,1 4 2 15 8 NW 1016,9 47 60 0,0
23.05.2019 17:00:00 17,7 5,2 22,1 24,0 13,4 11,1 7 4 17 9 NNW 1017,4 33 60 0,0
23.05.2019 16:00:00 17,4 2,9 21,5 24,6 12,9 11,1 8 5 16 9 WNW 1017,7 19 60 0,0
23.05.2019 15:00:00 16,8 4,1 21,8 24,5 12,5 11,1 9 5 20 11 W 1018,4 18 60 0,0
23.05.2019 14:00:00 16,4 4,7 21,8 23,1 12,1 11,1 7 4 18 10 NNW 1018,9 22 58 0,0
23.05.2019 13:00:00 15,3 4,6 20,6 21,6 11,8 11,1 10 5 27 14 NNW 1019,5 27 52 0,0
23.05.2019 12:00:00 15,0 4,7 21,9 19,3 11,5 11,1 6 4 16 9 N 1019,9 28 43 0,0
23.05.2019 11:00:00 14,7 5,2 19,9 17,8 11,4 11,1 5 3 15 8 WNW 1020,1 25 54 0,0
23.05.2019 10:00:00 13,2 6,7 16,8 14,7 11,4 11,1 11 6 23 12 WNW 1020,7 21 59 0,0
23.05.2019 09:00:00 12,7 7,3 15,8 11,8 11,5 11,1 6 3 15 8 NW 1020,7 16 60 0,0
23.05.2019 08:00:00 9,8 8,1 11,1 8,5 11,7 11,1 4 2 7 4 W 1021,2 6 44 0,0
23.05.2019 07:00:00 6,8 6,6 6,0 6,6 11,9 11,1 4 2 8 4 W 1021,4 3,7 17 0,0
23.05.2019 06:00:00 6,0 6,0 2,8 6,2 12,0 11,1 5 3 6 3 W 1021,3 2,1 0 0,0
23.05.2019 05:00:00 5,6 5,6 1,8 6,6 12,2 11,1 3 2 7 4 W 1021,4 0,9 0 0,0
23.05.2019 04:00:00 5,7 5,4 2,8 7,1 12,4 11,1 4 2 8 5 W 1021,4 3,8 0 0,0
23.05.2019 03:00:00 5,8 5,6 3,2 7,6 12,5 11,1 6 3 8 5 WNW 1021,3 1,2 0 0,0
23.05.2019 02:00:00 7,3 7,0 3,9 8,3 12,6 11,1 7 4 9 5 W 1021,0 5 0 0,0
23.05.2019 01:00:00 8,3 8,0 5,0 9,0 12,7 11,1 8 4 10 6 WNW 1020,6 8 0 0,0
23.05.2019 00:00:00 8,1 7,7 5,0 9,8 12,8 11,1 5 3 7 4 WNW 1020,5 3,5 0 0,0
22.05.2019 23:00:00 9,5 9,0 7,0 10,8 12,8 11,1 6 3 8 5 WNW 1020,3 10 0 0,0
22.05.2019 22:00:00 10,5 9,3 8,5 11,8 12,8 11,1 8 4 11 6 WNW 1020,0 16 0 0,0
22.05.2019 21:00:00 11,9 10,0 11,0 12,5 12,8 11,1 11 6 18 10 W 1019,3 20 0 0,0
22.05.2019 20:00:00 13,0 10,0 12,6 13,1 12,8 11,1 13 7 26 14 WNW 1018,6 21 0 0,0
22.05.2019 19:00:00 13,3 10,4 13,4 13,1 12,8 11,1 11 6 22 12 W 1018,3 14 0 0,0
22.05.2019 18:00:00 13,0 10,5 13,0 13,2 12,7 11,0 17 9 27 15 WNW 1018,4 11 0 0,0
22.05.2019 17:00:00 12,7 10,7 13,0 13,2 12,7 11,0 19 10 31 17 W 1018,2 9 0 0,0
22.05.2019 16:00:00 13,1 10,6 13,8 13,3 12,6 11,0 19 10 35 19 W 1018,2 10 0 0,0
22.05.2019 15:00:00 12,9 10,3 13,8 13,1 12,6 11,0 24 13 35 19 W 1018,1 12 0 0,0
22.05.2019 14:00:00 12,3 10,4 12,8 13,2 12,6 11,0 23 13 36 20 W 1018,1 9 0 0,0
22.05.2019 13:00:00 12,8 10,0 13,8 12,8 12,6 11,0 22 12 36 19 WNW 1017,7 11 0 0,0
22.05.2019 12:00:00 12,3 10,2 12,5 12,4 12,6 11,0 17 9 30 16 WNW 1017,3 11 0 0,0
22.05.2019 11:00:00 11,9 10,4 12,1 12,0 12,6 11,0 18 10 34 18 W 1016,9 9 0 0,0
22.05.2019 10:00:00 11,6 10,3 11,8 11,7 12,7 11,0 21 11 36 20 W 1016,5 14 0 0,0
22.05.2019 09:00:00 11,3 10,2 11,2 11,4 12,7 11,0 21 11 34 19 W 1016,3 15 0 0,5
22.05.2019 08:00:00 11,0 10,2 10,8 11,3 12,8 11,0 21 11 29 16 W 1015,8 4,5 0 0,9
22.05.2019 07:00:00 10,9 10,4 10,7 11,3 12,8 11,0 19 11 33 18 W 1015,3 4,0 0 0,9
22.05.2019 06:00:00 11,0 10,2 10,6 11,2 12,9 11,0 22 12 35 19 W 1014,8 10 0 0,3
22.05.2019 05:00:00 11,0 10,2 10,6 11,3 12,9 10,9 25 13 34 19 W 1014,4 12 0 0,4
22.05.2019 04:00:00 11,2 10,2 10,7 11,3 13,0 10,9 23 12 34 19 W 1014,1 21 0 0,0
22.05.2019 03:00:00 11,1 10,4 10,7 11,4 13,1 10,9 23 12 36 19 W 1013,7 22 0 1,2
22.05.2019 02:00:00 11,1 10,4 10,8 11,5 13,1 10,9 26 14 38 20 W 1013,5 12 0 1,2
22.05.2019 01:00:00 11,2 10,4 10,9 11,6 13,2 10,9 25 13 36 20 W 1013,5 11 0 0,3
22.05.2019 00:00:00 11,3 10,5 10,9 11,7 13,2 10,9 27 14 41 22 W 1013,1 11 0 0,0
21.05.2019 23:00:00 11,4 10,5 11,0 11,8 13,3 10,9 29 16 40 22 W 1012,8 22 0 0,9
21.05.2019 22:00:00 11,4 10,7 11,1 11,9 13,3 10,9 29 15 41 22 W 1012,6 5 0 0,8
21.05.2019 21:00:00 11,5 10,8 11,1 12,1 13,3 10,9 23 12 42 23 W 1011,6 4,8 0 0,4
21.05.2019 20:00:00 11,8 10,4 11,2 12,5 13,3 10,9 26 14 40 21 W 1011,0 70 0 0,0
21.05.2019 19:00:00 11,8 10,5 11,4 12,9 13,3 10,9 28 15 42 23 W 1010,4 22 0 0,0
21.05.2019 18:00:00 12,4 10,2 12,5 13,4 13,3 10,9 32 17 51 27 W 1010,0 47 0 0,0
21.05.2019 17:00:00 12,5 10,5 12,4 13,8 13,2 10,8 30 16 45 24 W 1009,9 24 0 0,0
21.05.2019 16:00:00 12,6 10,6 12,7 14,3 13,2 10,8 27 15 47 25 W 1009,5 20 0 0,0
21.05.2019 15:00:00 12,5 10,4 12,4 13,7 13,2 10,8 29 16 48 26 W 1009,1 30 0 0,0
21.05.2019 14:00:00 12,3 10,4 12,3 13,4 13,2 10,8 25 13 47 26 W 1008,7 17 0 0,0
21.05.2019 13:00:00 12,6 9,7 13,1 12,9 13,2 10,8 28 15 46 25 W 1008,2 49 0 0,0
21.05.2019 12:00:00 12,3 9,5 12,6 12,5 13,2 10,8 29 16 50 27 WSW 1007,8 54 0 0,0
21.05.2019 11:00:00 12,2 9,7 12,5 12,2 13,3 10,8 31 17 51 28 W 1007,4 70 0 0,0
21.05.2019 10:00:00 12,1 9,7 11,8 12,1 13,3 10,8 32 17 51 27 W 1006,7 55 0 0,0
21.05.2019 09:00:00 11,7 10,2 11,1 11,8 13,4 10,8 36 19 49 26 W 1005,8 15 0 1,5
21.05.2019 08:00:00 11,4 10,5 11,0 11,7 13,5 10,8 32 18 44 24 W 1005,1 14 0 2,7
21.05.2019 07:00:00 11,5 10,7 11,1 11,7 13,6 10,8 21 12 46 25 W 1004,3 8 0 5,2
21.05.2019 06:00:00 11,7 10,9 11,3 11,9 13,8 10,7 31 17 44 24 W 1003,7 4,3 0 3,4
21.05.2019 05:00:00 11,9 11,5 11,6 12,0 13,9 10,7 21 12 31 17 W 1002,9 4,5 0 2,7
21.05.2019 04:00:00 11,1 10,6 10,9 12,0 14,0 10,7 13 7 24 13 WSW 1002,9 4,0 0 1,1
21.05.2019 03:00:00 11,6 10,7 11,2 12,1 14,0 10,7 10 5 23 12 WSW 1002,9 14 0 0,3
21.05.2019 02:00:00 11,8 11,1 11,3 12,1 14,2 10,7 16 9 27 15 WSW 1002,8 6 0 2,3
21.05.2019 01:00:00 11,7 11,2 11,4 12,3 14,3 10,6 21 11 34 18 W 1002,9 4,4 0 3,3
21.05.2019 00:00:00 11,9 11,4 11,6 12,5 14,4 10,6 24 13 37 20 W 1002,7 3,6 0 2,9
20.05.2019 23:00:00 12,3 11,8 11,9 12,7 14,5 10,6 19 11 31 17 W 1002,2 4,9 0 4,0
20.05.2019 22:00:00 11,9 11,4 11,7 12,8 14,6 10,6 9 5 22 12 WSW 1002,1 7 0 3,1
20.05.2019 21:00:00 11,7 11,1 11,5 13,1 14,7 10,6 11 6 23 12 WSW 1002,0 8 0 2,5
20.05.2019 20:00:00 12,0 11,2 11,7 13,5 14,7 10,6 11 6 24 13 WSW 1002,1 10 0 2,9
20.05.2019 19:00:00 12,1 11,5 11,9 14,1 14,8 10,6 11 6 23 12 WSW 1002,1 3,2 0 1,3
20.05.2019 18:00:00 12,4 11,4 12,4 14,1 14,8 10,6 13 7 24 13 WSW 1002,1 18 0 0,8
20.05.2019 17:00:00 12,1 10,9 11,9 14,4 14,9 10,5 17 9 27 15 WSW 1002,2 32 0 2,5
20.05.2019 16:00:00 12,2 10,9 12,5 15,2 14,9 10,5 11 6 22 12 WSW 1002,2 10 0 2,5
20.05.2019 15:00:00 12,6 11,3 12,9 15,6 14,9 10,5 8 4 21 11 SW 1002,2 4,4 0 1,1
20.05.2019 14:00:00 11,9 11,0 12,3 15,6 15,0 10,5 13 7 24 13 WSW 1002,2 3,4 0 2,0
20.05.2019 13:00:00 13,3 12,2 14,0 15,9 15,0 10,5 6 4 13 7 SSW 1001,6 9 0 0,1
20.05.2019 12:00:00 13,3 12,2 14,1 15,5 15,1 10,5 6 3 10 6 SW 1001,4 4,5 0 0,6
20.05.2019 11:00:00 13,6 11,7 13,8 15,4 15,1 10,5 6 4 13 7 WSW 1001,4 6 0 0,1
20.05.2019 10:00:00 13,3 11,1 13,7 15,1 15,2 10,5 10 5 14 7 W 1001,3 9 0 0,0
20.05.2019 09:00:00 13,0 11,5 13,1 14,8 15,4 10,5 8 4 13 7 WSW 1001,0 9 0 0,6
20.05.2019 08:00:00 13,0 11,1 13,5 14,7 15,5 10,5 9 5 20 11 W 1000,8 12 0 0,0
20.05.2019 07:00:00 12,9 11,0 13,1 14,6 15,6 10,5 15 8 19 10 W 1000,9 13 0 0,0
20.05.2019 06:00:00 12,6 11,1 12,6 14,7 15,8 10,5 11 6 14 8 W 1001,0 19 0 0,0
20.05.2019 05:00:00 12,8 11,2 12,6 14,8 16,0 10,5 6 4 14 7 WSW 1001,4 23 0 0,0
20.05.2019 04:00:00 12,7 11,6 12,6 15,1 16,2 10,5 4 2 8 4 S 1001,6 18 0 0,0
20.05.2019 03:00:00 12,2 10,9 11,9 15,2 16,4 10,5 4 2 6 3 W 1001,7 26 0 0,0
20.05.2019 02:00:00 12,0 10,6 10,4 15,5 16,5 10,5 3 2 7 4 W 1002,4 26 0 0,0
20.05.2019 01:00:00 13,1 10,6 12,3 16,0 16,7 10,5 6 3 14 8 SW 1002,5 37 0 0,0
20.05.2019 00:00:00 13,8 9,9 11,9 17,0 16,8 10,5 11 6 24 13 WNW 1001,7 44 0 0,0
19.05.2019 23:00:00 15,0 9,8 13,5 18,2 16,9 10,5 11 6 19 11 WNW 1001,6 50 0 0,0
19.05.2019 22:00:00 16,1 10,3 15,0 19,7 16,9 10,4 13 7 27 15 WNW 1001,3 45 0 0,0
19.05.2019 21:00:00 17,8 10,4 17,1 21,1 16,7 10,4 13 7 32 17 NE 1000,3 34 6 0,0
19.05.2019 20:00:00 20,2 8,7 19,9 23,6 16,5 10,4 8 5 23 13 NNE 999,6 47 19 0,0
19.05.2019 19:00:00 21,3 7,9 22,3 24,9 16,2 10,4 14 8 24 13 E 999,3 43 54 0,0
19.05.2019 18:00:00 22,0 7,9 24,9 27,8 15,7 10,4 14 8 23 12 ENE 999,2 52 57 0,0
19.05.2019 17:00:00 22,7 5,9 27,9 29,7 15,2 10,4 8 4 19 11 E 999,2 29 60 0,0
19.05.2019 16:00:00 22,2 6,0 31,3 30,0 14,7 10,4 8 5 19 10 NNE 999,9 33 60 0,0
19.05.2019 15:00:00 21,9 6,8 31,1 29,3 14,2 10,4 7 4 16 8 NE 1000,4 35 60 0,0
19.05.2019 14:00:00 21,0 7,5 28,0 28,5 13,8 10,4 6 3 18 10 WNW 1001,1 36 60 0,0
19.05.2019 13:00:00 19,8 6,1 27,4 26,4 13,4 10,4 6 4 16 9 ESE 1001,8 29 60 0,0
19.05.2019 12:00:00 18,6 8,3 27,6 24,1 13,2 10,4 7 4 14 8 ENE 1002,5 16 60 0,0
19.05.2019 11:00:00 17,1 7,8 23,6 21,0 13,2 10,4 4 2 12 7 NNW 1003,1 33 60 0,0
19.05.2019 10:00:00 15,6 8,8 21,0 17,5 13,2 10,4 5 3 13 7 W 1003,4 18 60 0,0
19.05.2019 09:00:00 13,6 7,5 18,3 14,4 13,4 10,4 5 3 11 6 WNW 1003,7 26 60 0,0
19.05.2019 08:00:00 11,3 7,4 13,7 11,7 13,6 10,4 5 3 8 4 SSW 1004,3 21 60 0,0
19.05.2019 07:00:00 9,2 6,5 9,8 9,4 13,8 10,4 0 0 10 5 N 1004,5 22 53 0,0
19.05.2019 06:00:00 5,0 4,0 3,4 9,0 14,0 10,4 5 3 6 4 WNW 1005,0 22 0 0,0
19.05.2019 05:00:00 5,1 3,7 2,4 9,7 14,3 10,4 0 0 8 5 N 1004,7 33 0 0,0
19.05.2019 04:00:00 7,9 4,9 5,5 10,3 14,5 10,4 8 4 12 6 E 1004,1 36 0 0,0
19.05.2019 03:00:00 6,9 5,7 3,2 11,0 14,8 10,4 2 1 4 2 NE 1004,5 37 0 0,0
19.05.2019 02:00:00 8,6 5,0 4,6 11,9 15,0 10,4 5 3 10 5 E 1004,2 49 0 0,0
19.05.2019 01:00:00 8,5 6,3 4,9 12,9 15,1 10,4 2 1 9 5 E 1004,4 44 0 0,0
19.05.2019 00:00:00 12,3 7,4 5,8 14,1 15,3 10,4 5 3 9 5 E 1004,0 57 0 0,0
18.05.2019 23:00:00 14,3 7,4 8,6 15,4 15,4 10,4 5 3 12 7 E 1003,7 58 0 0,0
18.05.2019 22:00:00 15,3 7,9 12,0 16,8 15,4 10,4 9 5 14 7 ENE 1003,5 50 0 0,0
18.05.2019 21:00:00 16,0 8,2 10,0 18,7 15,2 10,4 4 2 10 5 E 1003,1 57 0 0,0
18.05.2019 20:00:00 17,7 8,8 16,3 20,9 15,0 10,4 8 4 16 9 ENE 1002,7 70 20 0,0
18.05.2019 19:00:00 20,1 7,7 20,1 23,1 14,7 10,4 9 5 23 13 E 1002,4 70 15 0,0
18.05.2019 18:00:00 21,0 6,4 24,6 25,7 14,3 10,4 11 6 28 15 ENE 1002,3 45 60 0,0
18.05.2019 17:00:00 21,0 4,2 26,1 26,0 13,9 10,4 6 4 18 10 E 1002,6 69 59 0,0
18.05.2019 16:00:00 20,7 5,4 24,6 26,1 13,5 10,4 7 4 21 11 E 1002,9 61 35 0,0
18.05.2019 15:00:00 20,5 4,8 27,6 26,6 13,0 10,4 10 5 24 13 E 1003,5 34 60 0,0
18.05.2019 14:00:00 20,2 6,5 27,4 25,6 12,6 10,4 9 5 18 10 E 1003,7 37 60 0,0
18.05.2019 13:00:00 19,5 8,1 26,4 24,3 12,3 10,4 9 5 24 13 ENE 1004,1 34 60 0,0
18.05.2019 12:00:00 18,2 7,9 24,1 22,9 12,1 10,4 8 5 16 9 SE 1004,6 26 60 0,0
18.05.2019 11:00:00 17,2 8,7 22,3 20,2 12,0 10,4 4 2 13 7 E 1004,9 19 60 0,0
18.05.2019 10:00:00 14,6 8,0 19,5 16,8 12,0 10,4 4 2 11 6 SE 1005,4 17 60 0,0
18.05.2019 09:00:00 12,8 7,1 18,3 13,6 12,1 10,4 5 3 12 6 E 1005,8 24 60 0,0
18.05.2019 08:00:00 11,2 7,3 13,2 10,8 12,3 10,4 5 3 13 7 ESE 1005,9 19 60 0,0
18.05.2019 07:00:00 9,3 6,6 9,8 9,2 12,4 10,4 6 3 9 5 E 1006,1 24 51 0,0
18.05.2019 06:00:00 7,3 5,9 5,5 9,0 12,6 10,4 6 3 13 7 E 1006,1 19 0 0,0
18.05.2019 05:00:00 7,9 6,4 6,1 9,6 12,7 10,4 6 4 16 9 E 1006,0 27 0 0,0
18.05.2019 04:00:00 10,0 7,3 8,7 10,3 12,9 10,4 9 5 16 8 E 1005,5 38 0 0,0
18.05.2019 03:00:00 10,3 7,5 8,7 10,7 13,1 10,4 8 4 17 9 E 1005,7 43 0 0,0

tt = Température de l'air
td = dewpoint
tt 5cm = Température de l'air 5cm
tt -5cm = Température de l'air -5cm
tt -20cm = Température de l'air -20cm
tt -100cm = Température de l'air -100cm
ff = Vitesse du vent
fx = gusts
dd = Direction du vent
ppp = reduced air pressure
vv = visibility
sd = Ensoleillement
rr = Quantités de précipitations

stations d'obs. à proximité